FW4441 Weather Reports


time (UTC)temp
C
wind
direction
speed
KPH
gust
KPH
rain 1hr
cm
rain 24hr
cm
rain mn
cm
humidity
%
barometer
mb
20260902084531 13 236 8.0 11.3 0.00 0.03 0.00 82 1008.3
20260902081531 13 250 9.7 17.7 0.00 0.03 0.00 81 1008.3
20260902074530 13 244 9.7 17.7 0.00 0.03 0.00 79 1008.5
20260902071531 15 239 14.5 22.5 0.00 0.03 0.00 75 1008.6
20260902070039 15 237 16.1 27.4 0.00 0.03 0.00 75 1008.9
20260902063030 15 238 16.1 29.0 0.00 0.03 0.03 73 1009.0
20260902061535 16 237 17.7 25.7 0.00 0.03 0.03 73 1009.1
20260902060031 16 245 19.3 37.0 0.00 0.03 0.03 72 1009.0
20260902054529 16 247 17.7 37.0 0.00 0.03 0.03 72 1008.9
20260902053030 16 246 16.1 27.4 0.00 0.03 0.03 72 1009.1
20260902050029 16 237 16.1 25.7 0.00 0.03 0.03 70 1008.7
20260902044606 16 242 16.1 32.2 0.00 0.03 0.03 70 1008.5
20260902041530 16 251 17.7 32.2 0.00 0.03 0.03 69 1008.3
20260902040033 16 256 16.1 29.0 0.00 0.03 0.03 70 1008.1
20260902034646 16 253 14.5 24.1 0.00 0.03 0.03 71 1008.0
20260902033029 16 252 11.3 20.9 0.00 0.03 0.03 71 1007.9
20260902031531 16 254 9.7 20.9 0.00 0.03 0.03 71 1007.9
20260902030148 16 242 12.9 20.9 0.00 0.03 0.03 70 1008.0
20260902024531 16 232 14.5 22.5 0.00 0.03 0.03 68 1007.9
20260902023030 16 244 17.7 35.4 0.00 0.03 0.03 67 1007.6
20260902021532 17 243 17.7 33.8 0.00 0.03 0.03 66 1007.5
20260902020030 17 250 17.7 33.8 0.00 0.03 0.03 64 1007.5
20260902013033 18 243 20.9 32.2 0.00 0.03 0.03 60 1007.3
20260902011530 20 249 19.3 35.4 0.00 0.03 0.03 59 1007.2
20260902010029 20 262 17.7 38.6 0.00 0.03 0.03 59 1007.1
20260902004533 20 260 19.3 35.4 0.00 0.03 0.03 60 1007.1
20260902003029 18 252 20.9 40.2 0.00 0.03 0.03 61 1007.0
20260902001533 19 253 20.9 38.6 0.00 0.03 0.03 61 1006.8
20260902000032 18 254 19.3 41.8 0.00 0.03 0.03 62 1007.1
20260901234606 19 250 24.1 53.1 0.00 0.03 0.03 61 1007.1
20260901233032 20 251 22.5 37.0 0.00 0.03 0.03 60 1007.1
20260901231532 20 259 24.1 32.2 0.00 0.03 0.03 60 1007.0
20260901230030 21 259 25.7 49.9 0.00 0.03 0.03 56 1007.0
20260901224533 22 254 27.4 48.3 0.00 0.03 0.03 55 1006.8
20260901223030 22 266 25.7 49.9 0.00 0.03 0.03 55 1006.5
20260901220030 22 273 20.9 38.6 0.00 0.03 0.03 56 1006.6
20260901213030 22 261 20.9 43.5 0.03 0.03 0.03 56 1006.6
20260901211531 21 263 20.9 43.5 0.03 0.03 0.03 56 1006.7
20260901210105 22 260 27.4 41.8 0.03 0.03 0.00 55 1006.6
20260901204608 22 253 19.3 40.2 0.00 0.00 0.00 54 1006.9
20260901201529 22 263 17.7 33.8 0.00 0.00 0.00 55 1007.0
20260901200033 22 258 19.3 37.0 0.00 0.00 0.00 56 1007.1
20260901194604 22 260 20.9 37.0 0.00 0.00 0.00 56 1007.4
20260901193030 22 254 17.7 32.2 0.00 0.00 0.00 57 1007.6
20260901191648 21 262 19.3 37.0 0.00 0.00 0.00 57 1007.8
20260901190106 21 263 16.1 38.6 0.00 0.00 0.00 58 1008.0
20260901184533 21 264 14.5 24.1 0.00 0.00 0.00 59 1008.1
20260901183106 21 258 12.9 20.9 0.00 0.00 0.00 60 1008.2
20260901181530 20 258 16.1 33.8 0.00 0.00 0.00 61 1008.3
20260901180030 20 256 14.5 29.0 0.00 0.00 0.00 63 1008.5
20260901174607 20 257 14.5 27.4 0.00 0.00 0.00 64 1008.4
20260901173032 19 264 11.3 22.5 0.00 0.00 0.00 67 1008.5
20260901171530 17 258 12.9 24.1 0.00 0.00 0.00 71 1008.5
20260901170032 17 254 11.3 24.1 0.00 0.00 0.00 73 1008.4
20260901164530 16 256 9.7 24.1 0.00 0.00 0.00 75 1008.5
20260901161605 15 262 9.7 22.5 0.00 0.00 0.00 78 1008.5
20260901160106 15 269 8.0 14.5 0.00 0.00 0.00 79 1008.4
20260901154535 15 279 8.0 17.7 0.00 0.00 0.00 81 1008.3
20260901153041 13 284 6.4 12.9 0.00 0.00 0.00 82 1008.4
20260901150032 13 287 6.4 14.5 0.00 0.00 0.00 83 1008.2
20260901144645 13 296 4.8 11.3 0.00 0.00 0.00 83 1008.2
20260901143031 13 291 4.8 12.9 0.00 0.00 0.00 83 1008.1
20260901141530 13 292 6.4 14.5 0.00 0.00 0.00 83 1008.0
20260901140031 13 296 4.8 9.7 0.00 0.00 0.00 83 1007.7
20260901134531 13 315 4.8 12.9 0.00 0.00 0.00 83 1007.6
20260901130029 13 322 4.8 11.3 0.00 0.00 0.00 83 1007.2
20260901124531 13 336 3.2 11.3 0.00 0.00 0.00 81 1007.1
20260901123031 13 13 4.8 8.0 0.00 0.00 0.00 81 1007.1
20260901121533 13 24 4.8 9.7 0.00 0.00 0.00 80 1007.1
20260901120030 13 25 4.8 8.0 0.00 0.00 0.00 79 1007.0
20260901114531 13 26 4.8 9.7 0.00 0.00 0.00 78 1007.1
20260901113030 13 19 6.4 11.3 0.00 0.00 0.00 77 1007.0
20260901111531 13 24 8.0 11.3 0.00 0.00 0.00 76 1006.9
20260901110042 14 25 6.4 11.3 0.00 0.00 0.00 75 1006.9
20260901110032 14 23 8.0 12.9 0.00 0.00 0.00 74 1006.9
20260901103031 13 22 8.0 11.3 0.00 0.00 0.00 73 1006.8
20260901101530 13 18 4.8 11.3 0.00 0.00 0.00 72 1006.9
20260901100030 14 16 6.4 9.7 0.00 0.00 0.00 70 1006.8
20260901094531 14 12 6.4 9.7 0.00 0.00 0.00 69 1006.8
20260901093030 14 9 4.8 11.3 0.00 0.00 0.00 66 1006.8
20260901091531 13 10 6.4 11.3 0.00 0.00 0.00 63 1006.6
20260901090031 13 312 1.6 8.0 0.00 0.00 0.00 63 1006.6